,,,PA_Meas_PMT16A,,PR_Meas_QMR101_102,,RH_Meas_QMH101,,SR_Meas_QMS101,,TA_Meas_QMH101,,GenWind,,GenWind,
date,time,status,PA,status,PR,status,RH,status,SR,status,TA,status,DirAvg,status,SpdAvg,
2011-03-13, 00:00:04,VALID,1009.53,VALID,0,VALID,99.4627,VALID,0,VALID,25.2903,VALID,15,VALID,0,
2011-03-13, 00:01:04,VALID,1009.48,VALID,0,VALID,99.5695,VALID,0,VALID,25.2922,VALID,15,VALID,0,
2011-03-13, 00:02:04,VALID,1009.48,VALID,0,VALID,99.661,VALID,0,VALID,25.2708,VALID,15,VALID,0,
2011-03-13, 00:03:04,VALID,1009.46,VALID,0,VALID,99.6915,VALID,0,VALID,25.2513,VALID,15,VALID,0,
2011-03-13, 00:04:04,VALID,1009.46,VALID,0,VALID,99.7372,VALID,0,VALID,25.2727,VALID,15,VALID,0,
2011-03-13, 00:05:04,VALID,1009.44,VALID,0,VALID,99.9279,VALID,0,VALID,25.2318,VALID,15,VALID,0,
2011-03-13, 00:06:04,VALID,1009.41,VALID,0,VALID,100.08,VALID,0,VALID,25.2532,VALID,15,VALID,0,
2011-03-13, 00:07:04,VALID,1009.41,VALID,0,VALID,100.218,VALID,0,VALID,25.2337,VALID,15,VALID,0,
2011-03-13, 00:08:04,VALID,1009.39,VALID,0,VALID,100.233,VALID,0,VALID,25.1733,VALID,15,VALID,0.145703,
2011-03-13, 00:09:04,VALID,1009.4,VALID,0,VALID,100.416,VALID,0,VALID,25.1947,VALID,15,VALID,0,
2011-03-13, 00:10:04,VALID,1009.36,VALID,0,VALID,100.622,VALID,0,VALID,25.1538,VALID,15,VALID,0,
2011-03-13, 00:11:04,VALID,1009.36,VALID,0,VALID,100.446,VALID,0,VALID,25.1557,VALID,15,VALID,0,
2011-03-13, 00:12:04,VALID,1009.34,VALID,0,VALID,100.485,VALID,0,VALID,25.1343,VALID,15,VALID,0,
2011-03-13, 00:13:04,VALID,1009.3,VALID,0,VALID,100.492,VALID,0,VALID,25.1148,VALID,15,VALID,0,
2011-03-13, 00:14:04,VALID,1009.28,VALID,0,VALID,100.568,VALID,0,VALID,25.0954,VALID,15,VALID,0,
2011-03-13, 00:15:04,VALID,1009.26,VALID,0,VALID,100.729,VALID,0,VALID,25.1167,VALID,15,VALID,0,
2011-03-13, 00:16:04,VALID,1009.25,VALID,0,VALID,100.683,VALID,0,VALID,25.0759,VALID,15,VALID,0,
2011-03-13, 00:17:04,VALID,1009.22,VALID,0,VALID,100.66,VALID,0,VALID,25.0973,VALID,15,VALID,0,
2011-03-13, 00:18:04,VALID,1009.19,VALID,0,VALID,100.744,VALID,0,VALID,25.0759,VALID,15,VALID,0,
2011-03-13, 00:19:04,VALID,1009.18,VALID,0,VALID,100.858,VALID,0,VALID,25.0973,VALID,15,VALID,0,
2011-03-13, 00:20:04,VALID,1009.17,VALID,0,VALID,101.003,VALID,0,VALID,25.0778,VALID,15,VALID,0,
2011-03-13, 00:21:04,VALID,1009.15,VALID,0,VALID,101.11,VALID,0,VALID,25.0778,VALID,15,VALID,0,
2011-03-13, 00:22:04,VALID,1009.1,VALID,0,VALID,101.262,VALID,0,VALID,25.0564,VALID,15,VALID,0,
2011-03-13, 00:23:04,VALID,1009.11,VALID,0,VALID,101.392,VALID,0,VALID,25.0583,VALID,15,VALID,0,
2011-03-13, 00:24:04,VALID,1009.08,VALID,0,VALID,101.392,VALID,0,VALID,24.9979,VALID,15,VALID,0,
2011-03-13, 00:25:04,VALID,1009.01,VALID,0,VALID,101.453,VALID,0,VALID,24.9998,VALID,15,VALID,0,
2011-03-13, 00:26:04,VALID,1008.98,VALID,0,VALID,101.606,VALID,0,VALID,24.9998,VALID,15,VALID,0,
2011-03-13, 00:27:04,VALID,1008.99,VALID,0,VALID,101.697,VALID,0,VALID,24.9998,VALID,15,VALID,0,
2011-03-13, 00:28:04,VALID,1008.93,VALID,0,VALID,101.636,VALID,0,VALID,24.9998,VALID,15,VALID,0,
2011-03-13, 00:29:04,VALID,1008.93,VALID,0,VALID,101.575,VALID,0,VALID,24.9979,VALID,15,VALID,0,
2011-03-13, 00:30:04,VALID,1008.88,VALID,0,VALID,101.567,VALID,0,VALID,25.0193,VALID,15,VALID,0,
2011-03-13, 00:31:04,VALID,1008.89,VALID,0,VALID,101.651,VALID,0.105969,VALID,25.0174,VALID,15,VALID,0,
2011-03-13, 00:32:04,VALID,1008.87,VALID,0,VALID,101.735,VALID,0,VALID,25.0388,VALID,15,VALID,0,
2011-03-13, 00:33:04,VALID,1008.85,VALID,0,VALID,101.728,VALID,0,VALID,25.0193,VALID,15,VALID,0,
2011-03-13, 00:34:04,VALID,1008.86,VALID,0,VALID,101.75,VALID,0,VALID,25.0193,VALID,15,VALID,0,
2011-03-13, 00:35:04,VALID,1008.85,VALID,0,VALID,101.766,VALID,0,VALID,24.9784,VALID,15,VALID,0,
2011-03-13, 00:36:04,VALID,1008.82,VALID,0,VALID,101.766,VALID,0,VALID,24.9394,VALID,15,VALID,0,
2011-03-13, 00:37:04,VALID,1008.83,VALID,0,VALID,101.819,VALID,0,VALID,24.9608,VALID,11,VALID,0,
2011-03-13, 00:38:04,VALID,1008.81,VALID,0,VALID,101.865,VALID,0.105969,VALID,24.9394,VALID,335,VALID,0.253125,
2011-03-13, 00:39:04,VALID,1008.81,VALID,0,VALID,101.926,VALID,0,VALID,24.9608,VALID,333,VALID,0,
2011-03-13, 00:40:04,VALID,1008.77,VALID,0,VALID,101.949,VALID,0,VALID,24.9199,VALID,333,VALID,0.0261719,
2011-03-13, 00:41:04,VALID,1008.72,VALID,0,VALID,101.941,VALID,0,VALID,24.9218,VALID,333,VALID,0.290234,
2011-03-13, 00:42:04,VALID,1008.72,VALID,0,VALID,102.002,VALID,0,VALID,24.8809,VALID,333,VALID,0,
2011-03-13, 00:43:04,VALID,1008.69,VALID,0,VALID,102.055,VALID,0,VALID,24.8828,VALID,333,VALID,0,
2011-03-13, 00:44:04,VALID,1008.7,VALID,0,VALID,102.132,VALID,0,VALID,24.8633,VALID,333,VALID,0,
2011-03-13, 00:45:04,VALID,1008.72,VALID,0,VALID,102.315,VALID,0,VALID,24.8438,VALID,333,VALID,0.171484,
2011-03-13, 00:46:04,VALID,1008.72,VALID,0,VALID,102.437,VALID,0,VALID,24.8049,VALID,333,VALID,0,
2011-03-13, 00:47:04,VALID,1008.72,VALID,0,VALID,102.566,VALID,0,VALID,24.7835,VALID,333,VALID,0,
2011-03-13, 00:48:04,VALID,1008.75,VALID,0,VALID,102.688,VALID,0,VALID,24.764,VALID,333,VALID,0,
2011-03-13, 00:49:04,VALID,1008.74,VALID,0,VALID,102.757,VALID,0,VALID,24.7445,VALID,333,VALID,0,
2011-03-13, 00:50:04,VALID,1008.76,VALID,0,VALID,102.81,VALID,0,VALID,24.7445,VALID,333,VALID,0,
2011-03-13, 00:51:04,VALID,1008.75,VALID,0,VALID,102.902,VALID,0,VALID,24.7269,VALID,333,VALID,0,
2011-03-13, 00:52:04,VALID,1008.74,VALID,0,VALID,102.986,VALID,0,VALID,24.7074,VALID,333,VALID,0,
2011-03-13, 00:53:04,VALID,1008.72,VALID,0,VALID,103.062,VALID,0,VALID,24.686,VALID,333,VALID,0,
2011-03-13, 00:54:04,VALID,1008.73,VALID,0,VALID,103.161,VALID,0,VALID,24.6666,VALID,333,VALID,0,
2011-03-13, 00:55:04,VALID,1008.73,VALID,0,VALID,103.222,VALID,0,VALID,24.6666,VALID,333,VALID,0,
2011-03-13, 00:56:04,VALID,1008.72,VALID,0,VALID,103.253,VALID,0,VALID,24.6666,VALID,333,VALID,0.326172,
2011-03-13, 00:57:04,VALID,1008.73,VALID,0,VALID,103.314,VALID,0,VALID,24.6471,VALID,344,VALID,0.449609,
2011-03-13, 00:58:04,VALID,1008.73,VALID,0,VALID,103.359,VALID,0,VALID,24.6879,VALID,356,VALID,0.351172,
2011-03-13, 00:59:04,VALID,1008.74,VALID,0,VALID,103.398,VALID,0,VALID,24.6879,VALID,356,VALID,0.308594,
2011-03-13, 01:00:04,VALID,1008.73,VALID,0,VALID,103.405,VALID,0,VALID,24.686,VALID,356,VALID,0.239063,
2011-03-13, 01:01:04,VALID,1008.7,VALID,0,VALID,103.413,VALID,0,VALID,24.686,VALID,356,VALID,0,
2011-03-13, 01:02:04,VALID,1008.7,VALID,0,VALID,103.413,VALID,0,VALID,24.6666,VALID,356,VALID,0,
2011-03-13, 01:03:04,VALID,1008.68,VALID,0,VALID,103.382,VALID,0,VALID,24.6684,VALID,356,VALID,0,
2011-03-13, 01:04:04,VALID,1008.71,VALID,0,VALID,103.359,VALID,0,VALID,24.6666,VALID,356,VALID,0,
2011-03-13, 01:05:04,VALID,1008.68,VALID,0,VALID,103.337,VALID,0,VALID,24.6684,VALID,356,VALID,0,
2011-03-13, 01:06:04,VALID,1008.65,VALID,0,VALID,103.359,VALID,0,VALID,24.6684,VALID,356,VALID,0,
2011-03-13, 01:07:04,VALID,1008.63,VALID,0,VALID,103.352,VALID,0,VALID,24.6471,VALID,356,VALID,0,
2011-03-13, 01:08:04,VALID,1008.59,VALID,0,VALID,103.352,VALID,0,VALID,24.6489,VALID,356,VALID,0,
2011-03-13, 01:09:04,VALID,1008.59,VALID,0,VALID,103.382,VALID,0,VALID,24.6276,VALID,356,VALID,0,
2011-03-13, 01:10:04,VALID,1008.55,VALID,0,VALID,103.413,VALID,0,VALID,24.6489,VALID,356,VALID,0,
2011-03-13, 01:11:04,VALID,1008.55,VALID,0,VALID,103.443,VALID,0,VALID,24.6294,VALID,356,VALID,0,
2011-03-13, 01:12:04,VALID,1008.57,VALID,0,VALID,103.436,VALID,0,VALID,24.6294,VALID,356,VALID,0,
2011-03-13, 01:13:04,VALID,1008.59,VALID,0,VALID,103.459,VALID,0,VALID,24.6294,VALID,356,VALID,0,
2011-03-13, 01:14:04,VALID,1008.61,VALID,0,VALID,103.481,VALID,0,VALID,24.6294,VALID,356,VALID,0,
2011-03-13, 01:15:04,VALID,1008.64,VALID,0,VALID,103.504,VALID,0,VALID,24.6099,VALID,356,VALID,0.458594,
2011-03-13, 01:16:04,VALID,1008.66,VALID,0,VALID,103.542,VALID,0,VALID,24.6099,VALID,356,VALID,0.354297,
2011-03-13, 01:17:04,VALID,1008.68,VALID,0,VALID,103.565,VALID,0,VALID,24.5886,VALID,88,VALID,0.624609,
2011-03-13, 01:18:04,VALID,1008.66,VALID,0,VALID,103.596,VALID,0,VALID,24.6099,VALID,94,VALID,0.762891,
2011-03-13, 01:19:04,VALID,1008.68,VALID,0,VALID,103.626,VALID,0,VALID,24.5886,VALID,95,VALID,1.06484,
2011-03-13, 01:20:04,VALID,1008.66,VALID,0,VALID,103.596,VALID,0,VALID,24.5691,VALID,95,VALID,0.744922,
2011-03-13, 01:21:04,VALID,1008.63,VALID,0,VALID,103.573,VALID,0,VALID,24.5905,VALID,84,VALID,0.896875,
2011-03-13, 01:22:04,VALID,1008.63,VALID,0,VALID,103.596,VALID,0,VALID,24.6099,VALID,83,VALID,0.607813,
2011-03-13, 01:23:04,VALID,1008.58,VALID,0,VALID,103.634,VALID,0,VALID,24.6099,VALID,74,VALID,0.898828,
2011-03-13, 01:24:04,VALID,1008.57,VALID,0,VALID,103.596,VALID,0,VALID,24.6099,VALID,83,VALID,1.09531,
2011-03-13, 01:25:04,VALID,1008.57,VALID,0,VALID,103.573,VALID,0,VALID,24.5905,VALID,82,VALID,1.23281,
2011-03-13, 01:26:04,VALID,1008.55,VALID,0,VALID,103.535,VALID,0,VALID,24.5496,VALID,90,VALID,0.991016,
2011-03-13, 01:27:04,VALID,1008.53,VALID,0,VALID,103.52,VALID,0,VALID,24.5301,VALID,93,VALID,0.673828,
2011-03-13, 01:28:04,VALID,1008.49,VALID,0,VALID,103.535,VALID,0,VALID,24.5515,VALID,74,VALID,0.587109,
2011-03-13, 01:29:04,VALID,1008.48,VALID,0,VALID,103.573,VALID,0,VALID,24.532,VALID,86,VALID,0.458594,
2011-03-13, 01:30:04,VALID,1008.42,VALID,0,VALID,103.588,VALID,0,VALID,24.532,VALID,77,VALID,0.433594,
2011-03-13, 01:31:04,VALID,1008.42,VALID,0,VALID,103.619,VALID,0.105969,VALID,24.5106,VALID,78,VALID,0.779688,
2011-03-13, 01:32:04,VALID,1008.39,VALID,0,VALID,103.634,VALID,0,VALID,24.5515,VALID,78,VALID,0.402734,
2011-03-13, 01:33:04,VALID,1008.38,VALID,0,VALID,103.672,VALID,0,VALID,24.5106,VALID,78,VALID,0.39375,
2011-03-13, 01:34:04,VALID,1008.35,VALID,0,VALID,103.687,VALID,0,VALID,24.5125,VALID,78,VALID,0.476563,
2011-03-13, 01:35:04,VALID,1008.35,VALID,0,VALID,103.672,VALID,0,VALID,24.5125,VALID,78,VALID,0.289063,
2011-03-13, 01:36:04,VALID,1008.34,VALID,0,VALID,103.657,VALID,0,VALID,24.4911,VALID,78,VALID,0.529297,
2011-03-13, 01:37:04,VALID,1008.34,VALID,0,VALID,103.695,VALID,0,VALID,24.532,VALID,78,VALID,0,
2011-03-13, 01:38:04,VALID,1008.34,VALID,0,VALID,103.718,VALID,0,VALID,24.5125,VALID,78,VALID,0,
2011-03-13, 01:39:04,VALID,1008.34,VALID,0,VALID,103.71,VALID,0,VALID,24.5125,VALID,78,VALID,0,
2011-03-13, 01:40:04,VALID,1008.34,VALID,0,VALID,103.726,VALID,0,VALID,24.5125,VALID,78,VALID,0,
2011-03-13, 01:41:04,VALID,1008.31,VALID,0,VALID,103.733,VALID,0,VALID,24.493,VALID,78,VALID,0,
2011-03-13, 01:42:04,VALID,1008.29,VALID,0,VALID,103.741,VALID,0,VALID,24.4717,VALID,78,VALID,0,
2011-03-13, 01:43:04,VALID,1008.3,VALID,0,VALID,103.756,VALID,0,VALID,24.4717,VALID,78,VALID,0,
2011-03-13, 01:44:04,VALID,1008.28,VALID,0,VALID,103.756,VALID,0,VALID,24.4717,VALID,78,VALID,0,
2011-03-13, 01:45:04,VALID,1008.28,VALID,0,VALID,103.787,VALID,0,VALID,24.4717,VALID,78,VALID,0.0703125,
2011-03-13, 01:46:04,VALID,1008.28,VALID,0,VALID,103.802,VALID,0,VALID,24.5125,VALID,78,VALID,0,
2011-03-13, 01:47:04,VALID,1008.26,VALID,0,VALID,103.832,VALID,0,VALID,24.4911,VALID,78,VALID,0,
2011-03-13, 01:48:04,VALID,1008.26,VALID,0,VALID,103.817,VALID,0,VALID,24.532,VALID,78,VALID,0,
2011-03-13, 01:49:04,VALID,1008.23,VALID,0,VALID,103.832,VALID,0,VALID,24.5106,VALID,78,VALID,0,
2011-03-13, 01:50:04,VALID,1008.22,VALID,0,VALID,103.817,VALID,0,VALID,24.532,VALID,78,VALID,0,
2011-03-13, 01:51:04,VALID,1008.21,VALID,0,VALID,103.802,VALID,0,VALID,24.532,VALID,78,VALID,0.279297,
2011-03-13, 01:52:04,VALID,1008.2,VALID,0,VALID,103.794,VALID,0,VALID,24.532,VALID,78,VALID,0.305469,
2011-03-13, 01:53:04,VALID,1008.2,VALID,0,VALID,103.809,VALID,0,VALID,24.5301,VALID,78,VALID,0.4625,
2011-03-13, 01:54:04,VALID,1008.19,VALID,0,VALID,103.787,VALID,0,VALID,24.571,VALID,78,VALID,0.407031,
2011-03-13, 01:55:04,VALID,1008.16,VALID,0,VALID,103.741,VALID,0,VALID,24.571,VALID,78,VALID,0.203906,
2011-03-13, 01:56:04,VALID,1008.15,VALID,0,VALID,103.726,VALID,0,VALID,24.5886,VALID,81,VALID,0.55625,
2011-03-13, 01:57:04,VALID,1008.12,VALID,0,VALID,103.703,VALID,0,VALID,24.5886,VALID,82,VALID,0.192578,
2011-03-13, 01:58:04,VALID,1008.15,VALID,0,VALID,103.672,VALID,0,VALID,24.6099,VALID,82,VALID,0.233984,
2011-03-13, 01:59:04,VALID,1008.14,VALID,0,VALID,103.611,VALID,0,VALID,24.6099,VALID,82,VALID,0.336719,
2011-03-13, 02:00:04,VALID,1008.11,VALID,0,VALID,103.626,VALID,0,VALID,24.6099,VALID,82,VALID,0.425391,
2011-03-13, 02:01:04,VALID,1008.14,VALID,0,VALID,103.588,VALID,0.105969,VALID,24.6099,VALID,82,VALID,0.325391,
2011-03-13, 02:02:04,VALID,1008.11,VALID,0,VALID,103.603,VALID,0,VALID,24.5905,VALID,84,VALID,0.520312,
2011-03-13, 02:03:04,VALID,1008.14,VALID,0,VALID,103.603,VALID,0.105969,VALID,24.5691,VALID,86,VALID,0.165234,
2011-03-13, 02:04:04,VALID,1008.12,VALID,0,VALID,103.603,VALID,0.105969,VALID,24.5905,VALID,86,VALID,0.466406,
2011-03-13, 02:05:04,VALID,1008.12,VALID,0,VALID,103.573,VALID,0.105969,VALID,24.5691,VALID,86,VALID,0.371875,
2011-03-13, 02:06:04,VALID,1008.1,VALID,0,VALID,103.581,VALID,0.105969,VALID,24.5496,VALID,86,VALID,0.267578,
2011-03-13, 02:07:04,VALID,1008.07,VALID,0,VALID,103.558,VALID,0.105969,VALID,24.571,VALID,86,VALID,0.224609,
2011-03-13, 02:08:04,VALID,1008.06,VALID,0,VALID,103.565,VALID,0.105969,VALID,24.5301,VALID,86,VALID,0.276172,
2011-03-13, 02:09:04,VALID,1008.04,VALID,0,VALID,103.542,VALID,0,VALID,24.5515,VALID,86,VALID,0.221875,
2011-03-13, 02:10:04,VALID,1008.06,VALID,0,VALID,103.558,VALID,0,VALID,24.5301,VALID,86,VALID,0.183594,
2011-03-13, 02:11:04,VALID,1008.02,VALID,0,VALID,103.542,VALID,0,VALID,24.532,VALID,86,VALID,0.29375,
2011-03-13, 02:12:04,VALID,1008.03,VALID,0,VALID,103.573,VALID,0,VALID,24.5106,VALID,86,VALID,0.246094,
2011-03-13, 02:13:04,VALID,1008,VALID,0,VALID,103.573,VALID,0.105969,VALID,24.5106,VALID,86,VALID,0.251172,
2011-03-13, 02:14:04,VALID,1007.99,VALID,0,VALID,103.603,VALID,0,VALID,24.5106,VALID,86,VALID,0.286328,
2011-03-13, 02:15:04,VALID,1008,VALID,0,VALID,103.596,VALID,0,VALID,24.493,VALID,86,VALID,0.202734,
2011-03-13, 02:16:04,VALID,1008.01,VALID,0,VALID,103.626,VALID,0.105969,VALID,24.493,VALID,86,VALID,0.225,
2011-03-13, 02:17:04,VALID,1008,VALID,0,VALID,103.672,VALID,0,VALID,24.4911,VALID,86,VALID,0.530859,
2011-03-13, 02:18:04,VALID,1007.97,VALID,0,VALID,103.71,VALID,0,VALID,24.4911,VALID,86,VALID,0.734375,
2011-03-13, 02:19:04,VALID,1007.98,VALID,0,VALID,103.695,VALID,0,VALID,24.5125,VALID,59,VALID,0.982422,
2011-03-13, 02:20:04,VALID,1008,VALID,0,VALID,103.642,VALID,0,VALID,24.4911,VALID,61,VALID,0.883203,
2011-03-13, 02:21:04,VALID,1007.99,VALID,0,VALID,103.573,VALID,0.105969,VALID,24.4911,VALID,70,VALID,0.707031,
2011-03-13, 02:22:04,VALID,1007.97,VALID,0,VALID,103.527,VALID,0,VALID,24.5125,VALID,71,VALID,0.509766,
2011-03-13, 02:23:04,VALID,1007.95,VALID,0,VALID,103.466,VALID,0,VALID,24.493,VALID,71,VALID,0.355078,
2011-03-13, 02:24:04,VALID,1007.95,VALID,0,VALID,103.436,VALID,0,VALID,24.4717,VALID,68,VALID,0.328516,
2011-03-13, 02:25:04,VALID,1007.92,VALID,0,VALID,103.428,VALID,0.105969,VALID,24.493,VALID,68,VALID,0.422656,
2011-03-13, 02:26:04,VALID,1007.91,VALID,0,VALID,103.459,VALID,0,VALID,24.4735,VALID,68,VALID,0.411328,
2011-03-13, 02:27:04,VALID,1007.88,VALID,0,VALID,103.443,VALID,0,VALID,24.4735,VALID,68,VALID,0.297266,
2011-03-13, 02:28:04,VALID,1007.89,VALID,0,VALID,103.535,VALID,0.105969,VALID,24.4522,VALID,68,VALID,0.255078,
2011-03-13, 02:29:04,VALID,1007.88,VALID,0,VALID,103.558,VALID,0,VALID,24.4327,VALID,68,VALID,0.29375,
2011-03-13, 02:30:04,VALID,1007.86,VALID,0,VALID,103.542,VALID,0,VALID,24.454,VALID,68,VALID,0.00820312,
2011-03-13, 02:31:04,VALID,1007.86,VALID,0,VALID,103.603,VALID,0.105969,VALID,24.415,VALID,68,VALID,0,
2011-03-13, 02:32:04,VALID,1007.88,VALID,0,VALID,103.649,VALID,0.105969,VALID,24.3742,VALID,68,VALID,0,
2011-03-13, 02:33:04,VALID,1007.87,VALID,0,VALID,103.687,VALID,0.105969,VALID,24.3742,VALID,68,VALID,0.053125,
2011-03-13, 02:34:04,VALID,1007.84,VALID,0,VALID,103.703,VALID,0,VALID,24.3761,VALID,68,VALID,0,
2011-03-13, 02:35:04,VALID,1007.89,VALID,0,VALID,103.756,VALID,0,VALID,24.3547,VALID,68,VALID,0.284766,
2011-03-13, 02:36:04,VALID,1007.88,VALID,0,VALID,103.764,VALID,0.105969,VALID,24.3566,VALID,68,VALID,0,
2011-03-13, 02:37:04,VALID,1007.91,VALID,0,VALID,103.809,VALID,0,VALID,24.3371,VALID,68,VALID,0.299219,
2011-03-13, 02:38:04,VALID,1007.93,VALID,0,VALID,103.855,VALID,0,VALID,24.3371,VALID,68,VALID,0.0835937,
2011-03-13, 02:39:04,VALID,1007.93,VALID,0,VALID,103.878,VALID,0.105969,VALID,24.3371,VALID,68,VALID,0,
2011-03-13, 02:40:04,VALID,1007.94,VALID,0,VALID,103.909,VALID,0,VALID,24.3176,VALID,68,VALID,0.220313,
2011-03-13, 02:41:04,VALID,1007.96,VALID,0,VALID,103.939,VALID,0.105969,VALID,24.3176,VALID,68,VALID,0.194922,
2011-03-13, 02:42:04,VALID,1007.98,VALID,0,VALID,103.954,VALID,0.105969,VALID,24.2963,VALID,68,VALID,0.242188,
2011-03-13, 02:43:04,VALID,1007.99,VALID,0,VALID,103.977,VALID,0.105969,VALID,24.3158,VALID,73,VALID,0.426953,
2011-03-13, 02:44:04,VALID,1008,VALID,0,VALID,104,VALID,0,VALID,24.3176,VALID,74,VALID,0.0269531,
2011-03-13, 02:45:04,VALID,1008.04,VALID,0,VALID,104,VALID,0.105969,VALID,24.3158,VALID,74,VALID,0.0675781,
2011-03-13, 02:46:04,VALID,1008.04,VALID,0,VALID,104,VALID,0,VALID,24.2963,VALID,74,VALID,0,
2011-03-13, 02:47:04,VALID,1008.04,VALID,0,VALID,104,VALID,0,VALID,24.3158,VALID,74,VALID,0,
2011-03-13, 02:48:04,VALID,1008.05,VALID,0,VALID,104,VALID,0.105969,VALID,24.3158,VALID,74,VALID,0,
2011-03-13, 02:49:04,VALID,1008.06,VALID,0,VALID,104,VALID,0,VALID,24.3566,VALID,74,VALID,0,
2011-03-13, 02:50:04,VALID,1008.07,VALID,0,VALID,104,VALID,0.105969,VALID,24.3352,VALID,74,VALID,0,
2011-03-13, 02:51:04,VALID,1008.09,VALID,0,VALID,104,VALID,0.105969,VALID,24.3352,VALID,74,VALID,0.40625,
2011-03-13, 02:52:04,VALID,1008.08,VALID,0,VALID,104,VALID,0,VALID,24.3158,VALID,74,VALID,0.467578,
2011-03-13, 02:53:04,VALID,1008.11,VALID,0,VALID,104,VALID,0.105969,VALID,24.3158,VALID,74,VALID,0.624219,
2011-03-13, 02:54:04,VALID,1008.1,VALID,0,VALID,104,VALID,0.105969,VALID,24.3371,VALID,84,VALID,0.732813,
2011-03-13, 02:55:04,VALID,1008.1,VALID,0,VALID,104,VALID,0,VALID,24.3158,VALID,92,VALID,0.725,
2011-03-13, 02:56:04,VALID,1008.11,VALID,0,VALID,104,VALID,0.105969,VALID,24.3176,VALID,94,VALID,0.956641,
2011-03-13, 02:57:04,VALID,1008.1,VALID,0,VALID,104,VALID,0,VALID,24.2749,VALID,93,VALID,0.843359,
2011-03-13, 02:58:04,VALID,1008.1,VALID,0,VALID,104,VALID,0,VALID,24.3176,VALID,91,VALID,0.573047,
2011-03-13, 02:59:04,VALID,1008.1,VALID,0,VALID,104,VALID,0.105969,VALID,24.2963,VALID,91,VALID,0.651953,
2011-03-13, 03:00:04,VALID,1008.09,VALID,0,VALID,104,VALID,0.105969,VALID,24.2768,VALID,88,VALID,0.689062,
2011-03-13, 03:01:04,VALID,1008.07,VALID,0,VALID,104,VALID,0.105969,VALID,24.2981,VALID,108,VALID,0.569141,
2011-03-13, 03:02:04,VALID,1008.07,VALID,0,VALID,104,VALID,0,VALID,24.2963,VALID,108,VALID,0,
2011-03-13, 03:03:04,VALID,1008.07,VALID,0,VALID,104,VALID,0,VALID,24.3176,VALID,108,VALID,0.371875,
2011-03-13, 03:04:04,VALID,1008.06,VALID,0,VALID,104,VALID,0.105969,VALID,24.2963,VALID,108,VALID,0.430078,
2011-03-13, 03:05:04,VALID,1008.05,VALID,0,VALID,104,VALID,0.105969,VALID,24.2981,VALID,108,VALID,0,
2011-03-13, 03:06:04,VALID,1008.07,VALID,0,VALID,104,VALID,0.105969,VALID,24.2981,VALID,108,VALID,0,
2011-03-13, 03:07:04,VALID,1008.05,VALID,0,VALID,104,VALID,0,VALID,24.2981,VALID,108,VALID,0.276953,
2011-03-13, 03:08:04,VALID,1008.06,VALID,0,VALID,104,VALID,0.105969,VALID,24.2768,VALID,102,VALID,0.641797,
2011-03-13, 03:09:04,VALID,1008.06,VALID,0,VALID,104,VALID,0,VALID,24.2786,VALID,100,VALID,0.0675781,
2011-03-13, 03:10:04,VALID,1008.05,VALID,0,VALID,104,VALID,0,VALID,24.2786,VALID,100,VALID,0.0171875,
2011-03-13, 03:11:04,VALID,1008.08,VALID,0,VALID,104,VALID,0,VALID,24.2786,VALID,100,VALID,0.260547,
2011-03-13, 03:12:04,VALID,1008.09,VALID,0,VALID,104,VALID,0.105969,VALID,24.2573,VALID,66,VALID,0.394922,
2011-03-13, 03:13:04,VALID,1008.04,VALID,0,VALID,104,VALID,0.105969,VALID,24.2378,VALID,70,VALID,0.810156,
2011-03-13, 03:14:04,VALID,1008.05,VALID,0,VALID,104,VALID,0,VALID,24.2396,VALID,73,VALID,0.613281,
2011-03-13, 03:15:04,VALID,1008.09,VALID,0,VALID,104,VALID,0,VALID,24.2396,VALID,73,VALID,0.382813,
2011-03-13, 03:16:04,VALID,1008.1,VALID,0,VALID,104,VALID,0,VALID,24.2183,VALID,73,VALID,0.397656,
2011-03-13, 03:17:04,VALID,1008.12,VALID,0,VALID,104,VALID,0,VALID,24.2396,VALID,73,VALID,0,
2011-03-13, 03:18:04,VALID,1008.12,VALID,0,VALID,104,VALID,0,VALID,24.2183,VALID,73,VALID,0,
2011-03-13, 03:19:04,VALID,1008.12,VALID,0,VALID,104,VALID,0,VALID,24.1988,VALID,73,VALID,0,
2011-03-13, 03:20:04,VALID,1008.12,VALID,0,VALID,104,VALID,0.105969,VALID,24.2396,VALID,73,VALID,0,
2011-03-13, 03:21:04,VALID,1008.06,VALID,0,VALID,104,VALID,0.105969,VALID,24.2378,VALID,73,VALID,0,
2011-03-13, 03:22:04,VALID,1008.07,VALID,0,VALID,104,VALID,0.105969,VALID,24.2591,VALID,73,VALID,0,
2011-03-13, 03:23:04,VALID,1008.04,VALID,0,VALID,104,VALID,0.105969,VALID,24.2396,VALID,73,VALID,0,
2011-03-13, 03:24:04,VALID,1008.06,VALID,0,VALID,104,VALID,0.105969,VALID,24.2202,VALID,71,VALID,0.436328,
2011-03-13, 03:25:04,VALID,1008.07,VALID,0,VALID,104,VALID,0.105969,VALID,24.1988,VALID,61,VALID,0.175391,
2011-03-13, 03:26:04,VALID,1008.08,VALID,0,VALID,104,VALID,0.105969,VALID,24.1988,VALID,61,VALID,0.110937,
2011-03-13, 03:27:04,VALID,1008.09,VALID,0,VALID,104,VALID,0.105969,VALID,24.2007,VALID,61,VALID,0,
2011-03-13, 03:28:04,VALID,1008.09,VALID,0,VALID,104,VALID,0.105969,VALID,24.1793,VALID,61,VALID,0.282813,
2011-03-13, 03:29:04,VALID,1008.09,VALID,0,VALID,104,VALID,0,VALID,24.1812,VALID,61,VALID,0.110547,
2011-03-13, 03:30:04,VALID,1008.1,VALID,0,VALID,104,VALID,0.105969,VALID,24.2007,VALID,61,VALID,0,
2011-03-13, 03:31:04,VALID,1008.08,VALID,0,VALID,104,VALID,0.105969,VALID,24.1599,VALID,61,VALID,0.0699219,
2011-03-13, 03:32:04,VALID,1008.09,VALID,0,VALID,104,VALID,0,VALID,24.1599,VALID,61,VALID,0.0566406,
2011-03-13, 03:33:04,VALID,1008.08,VALID,0,VALID,104,VALID,0,VALID,24.1599,VALID,61,VALID,0.274609,
2011-03-13, 03:34:04,VALID,1008.11,VALID,0,VALID,104,VALID,0,VALID,24.2007,VALID,80,VALID,0.678125,
2011-03-13, 03:35:04,VALID,1008.1,VALID,0,VALID,104,VALID,0.105969,VALID,24.1812,VALID,80,VALID,0.115625,
2011-03-13, 03:36:04,VALID,1008.13,VALID,0,VALID,104,VALID,0.105969,VALID,24.1812,VALID,80,VALID,0.222266,
2011-03-13, 03:37:04,VALID,1008.12,VALID,0,VALID,104,VALID,0.105969,VALID,24.1599,VALID,80,VALID,0.561719,
2011-03-13, 03:38:04,VALID,1008.14,VALID,0,VALID,104,VALID,0.105969,VALID,24.1599,VALID,94,VALID,0.573828,
2011-03-13, 03:39:04,VALID,1008.15,VALID,0,VALID,104,VALID,0.105969,VALID,24.1812,VALID,98,VALID,0.760938,
2011-03-13, 03:40:04,VALID,1008.13,VALID,0,VALID,104,VALID,0,VALID,24.1404,VALID,98,VALID,0.561719,
2011-03-13, 03:41:04,VALID,1008.15,VALID,0,VALID,104,VALID,0,VALID,24.1404,VALID,97,VALID,1.24492,
2011-03-13, 03:42:04,VALID,1008.17,VALID,0,VALID,104,VALID,0.105969,VALID,24.1404,VALID,90,VALID,0.742578,
2011-03-13, 03:43:04,VALID,1008.16,VALID,0,VALID,104,VALID,0.105969,VALID,24.1404,VALID,88,VALID,0.457422,
2011-03-13, 03:44:04,VALID,1008.2,VALID,0,VALID,104,VALID,0.105969,VALID,24.1404,VALID,96,VALID,0.851953,
2011-03-13, 03:45:04,VALID,1008.17,VALID,0,VALID,104,VALID,0.105969,VALID,24.1404,VALID,86,VALID,0.815625,
2011-03-13, 03:46:04,VALID,1008.17,VALID,0,VALID,104,VALID,0,VALID,24.1404,VALID,99,VALID,0.657031,
2011-03-13, 03:47:04,VALID,1008.18,VALID,0,VALID,104,VALID,0.105969,VALID,24.1404,VALID,88,VALID,0.776953,
2011-03-13, 03:48:04,VALID,1008.19,VALID,0,VALID,104,VALID,0,VALID,24.1014,VALID,88,VALID,0.810938,
2011-03-13, 03:49:04,VALID,1008.19,VALID,0,VALID,104,VALID,0,VALID,24.1014,VALID,90,VALID,0.638672,
2011-03-13, 03:50:04,VALID,1008.2,VALID,0,VALID,104,VALID,0,VALID,24.1014,VALID,92,VALID,0.716016,
2011-03-13, 03:51:04,VALID,1008.19,VALID,0,VALID,104,VALID,0.105969,VALID,24.1014,VALID,90,VALID,0.895703,